Mullan Pass, ID

5:18 PM PST on November 24, 2017 (GMT -0800)
Mullan Pass

Weather History for KMLP - November, 2012

Change the Weather History Date:

Tuesday, November 13, 2012

  Actual Average (K3TH) Record (K3TH)
Temperature  
Mean Temperature 29 °F -  
Max Temperature 30 °F 40 °F 48 °F (1997)
Min Temperature 28 °F 30 °F 25 °F (2000)
Degree Days  
Heating Degree Days 36    
Moisture  
Dew Point 26 °F    
Average Humidity 86    
Maximum Humidity 93    
Minimum Humidity 85    
Precipitation  
Precipitation 0.10 in - - ()
Sea Level Pressure  
Sea Level Pressure 30.13 in    
Wind  
Wind Speed 5 mph (SSW)    
Max Wind Speed 8 mph    
Max Gust Speed -    
Visibility 2 miles    
Events Fog , Snow    
Averages and records for this station are not official NWS values.
T = Trace of Precipitation, MM = Missing Value Source: NWS Daily Summary

Daily Weather History Graph

Daily Weather History Graph

Search for Another Location

Airport or City:

Trip Planner

Search our weather history database for the weather conditions in past years. The results will help you decide how hot, cold, wet, or windy it might be!

Date:

Astronomy

Nov. 13, 2012 Rise Set
Actual Time 6:45 AM PST 4:08 PM PST
Civil Twilight 6:11 AM PST 4:41 PM PST
Nautical Twilight 5:34 AM PST 5:18 PM PST
Astronomical Twilight 4:58 AM PST 5:54 PM PST
Moon 6:29 AM PST (11/13) 4:02 PM PST (11/13)
Length of Visible Light 10h 29m
Length of Day
9h 23m
Waning Crescent, 0% of the Moon is Illuminated
Nov 13
Waning Crescent
Nov 13
New
Nov 20
First Quarter
Nov 28
Full
Dec 6
Last Quarter

Hourly Weather History & Observations

Time (PST) Temp. Windchill Dew Point Humidity Pressure Visibility Wind Dir Wind Speed Gust Speed Precip Events Conditions
12:25 AM 28.4 °F 22.2 °F 24.8 °F 86% 30.14 in 2.0 mi SSW 5.8 mph - 0.00 in Snow Light Snow
12:53 AM 28.0 °F 20.0 °F 24.1 °F 85% 30.24 in 1.8 mi SSW 8.1 mph - 0.00 in Snow Light Snow
1:06 AM 28.4 °F 23.3 °F 24.8 °F 86% 30.14 in 1.8 mi SW 4.6 mph - 0.00 in Snow Light Snow
1:53 AM 28.0 °F 22.8 °F 25.0 °F 88% 30.26 in 2.5 mi Variable 4.6 mph - 0.00 in Snow Light Snow
2:15 AM 28.4 °F 24.6 °F 24.8 °F 86% 30.16 in 1.5 mi Variable 3.5 mph - 0.00 in Snow Light Snow
2:29 AM 28.4 °F 23.3 °F 24.8 °F 86% 30.15 in 0.8 mi South 4.6 mph - 0.00 in   Overcast
2:53 AM 28.0 °F 21.7 °F 24.1 °F 85% 30.26 in 0.5 mi South 5.8 mph - 0.00 in Fog , Snow Light Snow
3:24 AM 28.4 °F 23.3 °F 24.8 °F 86% 30.15 in 1.0 mi Variable 4.6 mph - 0.00 in   Mist
3:38 AM 28.4 °F 22.2 °F 24.8 °F 86% 30.15 in 0.5 mi Variable 5.8 mph - 0.00 in Fog , Snow Light Snow
3:53 AM 28.0 °F 20.8 °F 25.0 °F 88% 30.26 in 0.8 mi SSW 6.9 mph - 0.00 in Snow Light Snow
4:05 AM 28.4 °F 20.4 °F 24.8 °F 86% 30.15 in 1.8 mi SSW 8.1 mph - 0.00 in Snow Light Snow
4:12 AM 28.4 °F 22.2 °F 24.8 °F 86% 30.15 in 2.0 mi SSW 5.8 mph - 0.00 in Snow Light Snow
4:31 AM 28.4 °F 23.3 °F 24.8 °F 86% 30.15 in 1.2 mi South 4.6 mph - 0.00 in Snow Light Snow
4:49 AM 28.4 °F 22.2 °F 24.8 °F 86% 30.15 in 1.8 mi Variable 5.8 mph - 0.00 in Snow Light Snow
4:53 AM 28.0 °F 22.8 °F 25.0 °F 88% 30.26 in 1.2 mi South 4.6 mph - 0.00 in Snow Light Snow
5:02 AM 28.4 °F 23.3 °F 24.8 °F 86% 30.15 in 0.5 mi Variable 4.6 mph - 0.00 in Fog , Snow Light Snow
5:26 AM 28.4 °F 23.3 °F 24.8 °F 86% 30.15 in 1.5 mi SSW 4.6 mph - 0.00 in Snow Light Snow
5:34 AM 28.4 °F 22.2 °F 24.8 °F 86% 30.14 in 1.0 mi SSW 5.8 mph - 0.00 in   Overcast
5:53 AM 28.0 °F 20.0 °F 25.0 °F 88% 30.25 in 0.8 mi SW 8.1 mph - 0.00 in Snow Light Snow
6:41 AM 28.4 °F 21.2 °F 24.8 °F 86% 30.15 in 0.2 mi Variable 6.9 mph - 0.00 in Fog Light Freezing Fog
6:48 AM 28.4 °F 22.2 °F 24.8 °F 86% 30.15 in 0.8 mi SSW 5.8 mph - 0.00 in Snow Light Snow
6:53 AM 28.0 °F 20.8 °F 25.0 °F 88% 30.25 in 0.8 mi SSW 6.9 mph - 0.00 in Snow Light Snow
7:00 AM 28.4 °F 21.2 °F 24.8 °F 86% 30.15 in 0.8 mi SW 6.9 mph - 0.00 in Snow Light Snow
7:41 AM 28.4 °F 24.6 °F 24.8 °F 86% 30.16 in 1.0 mi Variable 3.5 mph - 0.00 in Snow Light Snow
7:47 AM 28.4 °F 24.6 °F 26.6 °F 93% 30.15 in 2.0 mi SSW 3.5 mph - 0.00 in Snow Light Snow
7:51 AM 28.4 °F 24.6 °F 26.6 °F 93% 30.15 in 3.0 mi SSW 3.5 mph - 0.00 in   Overcast
7:53 AM 28.9 °F 23.9 °F 25.0 °F 85% 30.26 in 1.2 mi South 4.6 mph - 0.00 in   Overcast
7:59 AM 28.4 °F 23.3 °F 24.8 °F 86% 30.16 in 0.2 mi South 4.6 mph - 0.00 in Fog , Snow Light Snow
8:44 AM 28.4 °F 23.3 °F 24.8 °F 86% 30.16 in 0.2 mi Variable 4.6 mph - 0.00 in Fog , Snow Light Snow
8:53 AM 28.9 °F 25.2 °F 25.0 °F 85% 30.26 in 0.2 mi Variable 3.5 mph - 0.00 in Fog , Snow Light Snow
9:43 AM 30.2 °F 25.4 °F 26.6 °F 86% 30.16 in 0.5 mi Variable 4.6 mph - 0.00 in Fog , Snow Light Snow
9:48 AM 30.2 °F 26.7 °F 26.6 °F 86% 30.16 in 0.2 mi SSW 3.5 mph - 0.00 in Fog , Snow Light Snow
9:53 AM 30.0 °F 24.1 °F 26.1 °F 85% 30.25 in 0.5 mi Variable 5.8 mph - 0.00 in Fog , Snow Light Snow
10:01 AM 30.2 °F 24.3 °F 26.6 °F 86% 30.16 in 0.5 mi Variable 5.8 mph - 0.00 in Snow Snow
10:11 AM 30.2 °F 26.7 °F 26.6 °F 86% 30.16 in 0.5 mi Variable 3.5 mph - 0.00 in Fog Light Freezing Fog
10:30 AM 30.2 °F 25.4 °F 26.6 °F 86% 30.15 in 0.2 mi Variable 4.6 mph - 0.00 in Fog , Snow Light Snow
10:53 AM 30.0 °F 25.2 °F 26.1 °F 85% 30.24 in 0.2 mi Variable 4.6 mph - 0.00 in Fog , Snow Light Snow
11:53 AM 30.9 °F 27.5 °F 27.0 °F 85% 30.07 in 0.2 mi Variable 3.5 mph - 0.01 in Fog , Snow Light Snow
12:53 PM 30.9 °F 26.2 °F 27.0 °F 85% 30.06 in 0.2 mi Variable 4.6 mph - 0.04 in Fog , Snow Light Snow
1:53 PM 30.9 °F 27.5 °F 27.0 °F 85% 30.05 in 0.5 mi Variable 3.5 mph - 0.04 in Fog , Snow Light Snow
2:53 PM 30.0 °F 23.2 °F 27.0 °F 88% 30.19 in 1.0 mi Variable 6.9 mph - 0.01 in Snow Light Snow
3:08 PM 30.2 °F 24.3 °F 26.6 °F 86% 30.10 in 0.8 mi SW 5.8 mph - 0.00 in Snow Light Snow
3:53 PM 30.0 °F 24.1 °F 27.0 °F 88% 30.19 in 0.8 mi SW 5.8 mph - 0.00 in Snow Light Snow
4:01 PM 30.2 °F 25.4 °F 26.6 °F 86% 30.10 in 1.5 mi WSW 4.6 mph - 0.00 in Snow Light Snow
4:16 PM 30.2 °F 25.4 °F 26.6 °F 86% 30.10 in 3.0 mi WSW 4.6 mph - 0.00 in Snow Light Snow
4:28 PM 30.2 °F 26.7 °F 26.6 °F 86% 30.11 in 1.5 mi Variable 3.5 mph - 0.00 in Snow Light Snow
4:31 PM 30.2 °F 24.3 °F 26.6 °F 86% 30.10 in 0.8 mi SW 5.8 mph - 0.00 in Snow Light Snow
4:41 PM 30.2 °F 25.4 °F 26.6 °F 86% 30.10 in 0.2 mi WSW 4.6 mph - 0.00 in Fog Light Freezing Fog
4:50 PM 30.2 °F 26.7 °F 26.6 °F 86% 30.10 in 0.5 mi Variable 3.5 mph - 0.00 in Fog , Snow Light Snow
4:53 PM 30.0 °F 23.2 °F 27.0 °F 88% 30.19 in 0.5 mi Variable 6.9 mph - 0.00 in Fog , Snow Light Snow
5:17 PM 30.2 °F 23.4 °F 26.6 °F 86% 30.10 in 1.5 mi SW 6.9 mph - 0.00 in   Overcast
5:32 PM 30.2 °F 24.3 °F 26.6 °F 86% 30.10 in 0.8 mi Variable 5.8 mph - 0.00 in   Mist
5:53 PM 30.0 °F 24.1 °F 27.0 °F 88% 30.19 in 0.5 mi Variable 5.8 mph - 0.00 in Fog Light Freezing Fog
6:02 PM 30.2 °F 24.3 °F 26.6 °F 86% 30.10 in 1.5 mi Variable 5.8 mph - N/A   Overcast
6:05 PM 30.2 °F 22.6 °F 26.6 °F 86% 30.10 in 3.0 mi SW 8.1 mph - N/A   Overcast
6:53 PM 30.0 °F - 27.0 °F 88% 30.19 in 10.0 mi Calm Calm - N/A   Overcast
7:10 PM 30.2 °F 26.7 °F 26.6 °F 86% 30.10 in 9.0 mi Variable 3.5 mph - N/A   Overcast
7:32 PM 30.2 °F 26.7 °F 26.6 °F 86% 30.10 in 1.2 mi Variable 3.5 mph - N/A   Overcast
7:39 PM 30.2 °F 26.7 °F 26.6 °F 86% 30.09 in 0.5 mi SSW 3.5 mph - N/A Fog Light Freezing Fog
7:49 PM 30.2 °F 26.7 °F 26.6 °F 86% 30.10 in 1.8 mi Variable 3.5 mph - N/A   Overcast
7:53 PM 30.0 °F 26.5 °F 27.0 °F 88% 30.04 in 9.0 mi WSW 3.5 mph - N/A   Overcast
8:15 PM 30.2 °F - 26.6 °F 86% 30.09 in 7.0 mi Calm Calm - N/A   Overcast
8:43 PM 30.2 °F 25.4 °F 26.6 °F 86% 30.09 in 2.5 mi Variable 4.6 mph - N/A   Overcast
8:51 PM 30.2 °F 26.7 °F 26.6 °F 86% 30.09 in 10.0 mi SW 3.5 mph - N/A   Overcast
8:53 PM 30.0 °F 25.2 °F 27.0 °F 88% 30.03 in 10.0 mi SW 4.6 mph - N/A   Overcast
9:20 PM 30.2 °F 25.4 °F 26.6 °F 86% 30.08 in 1.2 mi South 4.6 mph - N/A   Overcast
9:28 PM 30.2 °F 26.7 °F 26.6 °F 86% 30.08 in 0.5 mi South 3.5 mph - N/A Fog Light Freezing Fog
9:33 PM 30.2 °F 25.4 °F 26.6 °F 86% 30.08 in 1.0 mi SSW 4.6 mph - N/A   Overcast
9:40 PM 30.2 °F 26.7 °F 26.6 °F 86% 30.08 in 1.5 mi South 3.5 mph - N/A   Overcast
9:42 PM 30.2 °F 25.4 °F 26.6 °F 86% 30.08 in 1.2 mi South 4.6 mph - N/A   Overcast
9:51 PM 30.2 °F 26.7 °F 26.6 °F 86% 30.08 in 0.8 mi SSW 3.5 mph - N/A   Overcast
9:53 PM 30.0 °F 26.5 °F 27.0 °F 88% 30.02 in 0.8 mi SSW 3.5 mph - N/A   Overcast
10:06 PM 30.2 °F 25.4 °F 26.6 °F 86% 30.08 in 1.0 mi South 4.6 mph - N/A   Overcast
10:14 PM 30.2 °F 24.3 °F 26.6 °F 86% 30.08 in 0.8 mi SSW 5.8 mph - N/A   Overcast
10:26 PM 30.2 °F 24.3 °F 26.6 °F 86% 30.08 in 1.5 mi Variable 5.8 mph - N/A   Overcast
10:29 PM 30.2 °F 25.4 °F 26.6 °F 86% 30.08 in 3.0 mi SSW 4.6 mph - N/A   Overcast
10:48 PM 30.2 °F 24.3 °F 26.6 °F 86% 30.07 in 2.0 mi SSW 5.8 mph - N/A   Overcast
10:53 PM 30.0 °F 25.2 °F 27.0 °F 88% 30.01 in 3.0 mi SSW 4.6 mph - N/A   Overcast
11:23 PM 30.2 °F 24.3 °F 26.6 °F 86% 30.07 in 2.5 mi SSW 5.8 mph - N/A   Overcast
11:35 PM 30.2 °F 24.3 °F 26.6 °F 86% 30.07 in 2.0 mi SSW 5.8 mph - 0.00 in Snow Light Snow
11:47 PM 30.2 °F 25.4 °F 26.6 °F 86% 30.07 in 1.8 mi SSW 4.6 mph - 0.00 in Snow Light Snow
11:51 PM 30.2 °F 24.3 °F 26.6 °F 86% 30.07 in 2.0 mi SSW 5.8 mph - 0.00 in Snow Light Snow
11:53 PM 30.0 °F 23.2 °F 27.0 °F 88% 30.01 in 3.0 mi Variable 6.9 mph - 0.00 in Snow Light Snow